Farquhar Airport

Jump to: basic info | weather | runways | comments

Related pages: nearby airports | nearby navaids | notams | map

Basic information (top)

Codes: FSFA
Location: lon -10.109600, lat 51.176102, elev 10 ft / 3 m msl
Status: small_airport

Weather (top)

Current conditions for Prince Said Ibrahim International Airport 474nm (878km) W (rec'd 2015/03/04 06:00Z):

FMCH 040600Z VRB02KT 9000 -RA SCT020CB BKN030 OVC080 24/24 Q1012 TEMPO 4000 TSRA

Airport forecast for Prince Said Ibrahim International Airport 474nm (878km) W (rec'd 2015/03/04 06:00Z):

TAF FMCH 040500Z 0406/0512 30010KT 7000 SHRA FEW018 BKN030 OVC080 
      TEMPO 0406/0416 3000 SHRA TSRA 
      BECMG 0418/0420 VRB03KT PROB30 
      TEMPO 0423/0504 SHRA

Runways (top)

13/31: 3,035 x 75 ft (925 x 23 m) — paved — not lighted

Latest comments (top)

No comments yet for Farquhar Airport

More... (top)

See also NOTAMs and nearby airports and navaids, or visit the Farquhar Airport page at the main OurAirports website..